Flag for Saudi Arabia Weather past 2 weeks in Riyadh, Saudi Arabia

Now
48 °F

Sunny.


Feels Like: 45 °F
Forecast: 51 / 75 °F
Wind: 7 mph from Northwest

Location: King Khaled International Airport

Current Time: Feb 27, 2015 at 7:32:32 AM

Latest Report: Feb 27, 2015 at 7:00 AM


Visibility: 10 mi

Pressure: 30.18 "Hg

Humidity: 43%

Dew point: 27 °F

Location of RiyadhLocation

Historic Weather in Riyadh — Graph

°F

Riyadh temperature yesterday

Maximum temperature yesterday: 75 °F (at 12:00 PM)
Minimum temperature yesterday: 59 °F (at 3:00 AM)
Average temperature yesterday: 66 °F

Past Weeks' High & Low Weather Summary

 TemperatureHumidityPressure
High90 °F (Feb 17, 2:00 PM)77% (Feb 15, 2:00 AM)30.30 "Hg (Feb 15, 2:00 AM)
Low41 °F (Feb 23, 4:00 AM)10% (Feb 20, 6:00 PM)29.65 "Hg (Feb 20, 4:00 PM)
Average65 °F30%30.02 "Hg
* Reported Feb 12 6:00 AM — Feb 27 6:00 AM, Riyadh, Weather by CustomWeather, © 2015

Note: Actual official high and low records may vary slightly from our data, if they occured in-between our weather recording intervals... More about our weather records

Advertising

Riyadh weather history for previous 24 hours

 ConditionsComfort  
Time TempWeatherWind HumidityBarometerVisibility
6:00 AM
Fri, Feb 27
48 °FClear.9 mph40%30.15 "Hg10 mi
5:00 AM48 °FClear.7 mph37%30.15 "Hg10 mi
4:00 AM50 °FClear.8 mph35%30.12 "Hg10 mi
3:00 AM50 °FClear.8 mph35%30.12 "Hg10 mi
2:00 AM52 °FClear.7 mph32%30.15 "Hg10 mi
1:00 AM57 °FClear.8 mph29%30.15 "Hg10 mi
12:00 AM55 °FClear.5 mph31%30.15 "Hg10 mi
11:00 PM
Thu, Feb 26
59 °FClear.8 mph27%30.15 "Hg10 mi
10:00 PM59 °FClear.6 mph27%30.15 "Hg6 mi
9:00 PM63 °FClear.7 mph27%30.15 "Hg4 mi
8:00 PM64 °FClear.14 mph22%30.15 "Hg4 mi
7:00 PM66 °FClear.14 mph30%30.12 "Hg4 mi
6:00 PM68 °FClear.16 mph28%30.12 "Hg4 mi
5:00 PM72 °FSunny.18 mph23%30.09 "Hg4 mi
4:00 PM72 °FSunny.15 mph27%30.07 "Hg10 mi
3:00 PM73 °FSunny.16 mph23%30.07 "Hg10 mi
2:00 PM73 °FSunny.16 mph20%30.07 "Hg10 mi
1:00 PM75 °FSunny.13 mph15%30.07 "Hg10 mi
12:00 PM75 °FSunny.14 mph13%30.09 "Hg10 mi
11:00 AM72 °FSunny.14 mph15%30.12 "Hg6 mi
10:00 AM70 °FClear.13 mph16%30.12 "Hg6 mi
9:00 AM63 °FSunny.13 mph19%30.09 "Hg10 mi
8:00 AM63 °FSunny.12 mph22%30.09 "Hg6 mi
7:00 AM59 °FClear.12 mph27%30.07 "Hg4 mi
Weather by CustomWeather, © 2015

See weather overviewHow to use our weather pages